Year,Month,Day,Hour,Minute,Value (Times are PST for temperature in C)
2010,06,16,00,00,11.20
2010,06,16,00,01,11.20
2010,06,16,00,02,11.20
2010,06,16,00,03,11.30
2010,06,16,00,04,11.30
2010,06,16,00,05,11.30
2010,06,16,00,06,11.30
2010,06,16,00,07,11.30
2010,06,16,00,08,11.30
2010,06,16,00,09,11.30
2010,06,16,00,10,11.30
2010,06,16,00,11,11.30
2010,06,16,00,12,11.30
2010,06,16,00,13,11.30
2010,06,16,00,14,11.30
2010,06,16,00,15,11.30
2010,06,16,00,16,11.30
2010,06,16,00,17,11.30
2010,06,16,00,18,11.30
2010,06,16,00,19,11.30
2010,06,16,00,20,11.40
2010,06,16,00,21,11.40
2010,06,16,00,22,11.40
2010,06,16,00,23,11.40
2010,06,16,00,24,11.40
2010,06,16,00,25,11.40
2010,06,16,00,26,11.40
2010,06,16,00,27,11.40
2010,06,16,00,28,11.40
2010,06,16,00,29,11.40
2010,06,16,00,30,11.40
2010,06,16,00,31,11.40
2010,06,16,00,32,11.40
2010,06,16,00,33,11.50
2010,06,16,00,34,11.50
2010,06,16,00,35,11.50
2010,06,16,00,36,11.50
2010,06,16,00,37,11.50
2010,06,16,00,38,11.50
2010,06,16,00,39,11.50
2010,06,16,00,40,11.50
2010,06,16,00,41,11.50
2010,06,16,00,42,11.50
2010,06,16,00,43,11.50
2010,06,16,00,44,11.50
2010,06,16,00,45,11.50
2010,06,16,00,46,11.40
2010,06,16,00,47,11.40
2010,06,16,00,48,11.40
2010,06,16,00,49,11.40
2010,06,16,00,50,11.40
2010,06,16,00,51,11.40
2010,06,16,00,52,11.40
2010,06,16,00,53,11.40
2010,06,16,00,54,11.40
2010,06,16,00,55,11.40
2010,06,16,00,56,11.40
2010,06,16,00,57,11.40
2010,06,16,00,58,11.40
2010,06,16,00,59,11.40
2010,06,16,01,00,11.50
2010,06,16,01,01,11.50
2010,06,16,01,02,11.50
2010,06,16,01,03,11.40
2010,06,16,01,04,11.40
2010,06,16,01,05,11.30
2010,06,16,01,06,11.30
2010,06,16,01,07,11.30
2010,06,16,01,08,11.20
2010,06,16,01,09,11.20
2010,06,16,01,10,11.10
2010,06,16,01,11,11.10
2010,06,16,01,12,11.00
2010,06,16,01,13,11.00
2010,06,16,01,14,10.90
2010,06,16,01,15,10.90
2010,06,16,01,16,10.80
2010,06,16,01,17,10.80
2010,06,16,01,18,10.70
2010,06,16,01,19,10.60
2010,06,16,01,20,10.60
2010,06,16,01,21,10.50
2010,06,16,01,22,10.50
2010,06,16,01,23,10.40
2010,06,16,01,24,10.40
2010,06,16,01,25,10.40
2010,06,16,01,26,10.40
2010,06,16,01,27,10.40
2010,06,16,01,28,10.40
2010,06,16,01,29,10.40
2010,06,16,01,30,10.30
2010,06,16,01,31,10.30
2010,06,16,01,32,10.30
2010,06,16,01,33,10.20
2010,06,16,01,34,10.20
2010,06,16,01,35,10.10
2010,06,16,01,36,10.10
2010,06,16,01,37,10.10
2010,06,16,01,38,10.10
2010,06,16,01,39,10.00
2010,06,16,01,40,10.00
2010,06,16,01,41,9.90
2010,06,16,01,42,9.90
2010,06,16,01,43,9.90
2010,06,16,01,44,9.80
2010,06,16,01,45,9.80
2010,06,16,01,46,9.80
2010,06,16,01,47,9.80
2010,06,16,01,48,9.80
2010,06,16,01,49,9.70
2010,06,16,01,50,9.70
2010,06,16,01,51,9.70
2010,06,16,01,52,9.60
2010,06,16,01,53,9.60
2010,06,16,01,54,9.60
2010,06,16,01,55,9.60
2010,06,16,01,56,9.60
2010,06,16,01,57,9.60
2010,06,16,01,58,9.60
2010,06,16,01,59,9.60
2010,06,16,02,00,9.60
2010,06,16,02,01,9.60
2010,06,16,02,02,9.60
2010,06,16,02,03,9.60
2010,06,16,02,04,9.60
2010,06,16,02,05,9.50
2010,06,16,02,06,9.50
2010,06,16,02,07,9.50
2010,06,16,02,08,9.50
2010,06,16,02,09,9.40
2010,06,16,02,10,9.50
2010,06,16,02,11,9.50
2010,06,16,02,12,9.50
2010,06,16,02,13,9.50
2010,06,16,02,14,9.50
2010,06,16,02,15,9.50
2010,06,16,02,16,9.50
2010,06,16,02,17,9.50
2010,06,16,02,18,9.50
2010,06,16,02,19,9.40
2010,06,16,02,20,9.40
2010,06,16,02,21,9.40
2010,06,16,02,22,9.40
2010,06,16,02,23,9.40
2010,06,16,02,24,9.40
2010,06,16,02,25,9.40
2010,06,16,02,26,9.40
2010,06,16,02,27,9.50
2010,06,16,02,28,9.50
2010,06,16,02,29,9.50
2010,06,16,02,30,9.50
2010,06,16,02,31,9.50
2010,06,16,02,32,9.50
2010,06,16,02,33,9.50
2010,06,16,02,34,9.40
2010,06,16,02,35,9.40
2010,06,16,02,36,9.40
2010,06,16,02,37,9.40
2010,06,16,02,38,9.40
2010,06,16,02,39,9.30
2010,06,16,02,40,9.30
2010,06,16,02,41,9.30
2010,06,16,02,42,9.30
2010,06,16,02,43,9.30
2010,06,16,02,44,9.30
2010,06,16,02,45,9.30
2010,06,16,02,46,9.20
2010,06,16,02,47,9.20
2010,06,16,02,48,9.20
2010,06,16,02,49,9.20
2010,06,16,02,50,9.20
2010,06,16,02,51,9.10
2010,06,16,02,52,9.10
2010,06,16,02,53,9.10
2010,06,16,02,54,9.10
2010,06,16,02,55,9.10
2010,06,16,02,56,9.00
2010,06,16,02,57,9.00
2010,06,16,02,58,9.00
2010,06,16,02,59,9.00
2010,06,16,03,00,9.00
2010,06,16,03,01,9.00
2010,06,16,03,02,8.90
2010,06,16,03,03,8.90
2010,06,16,03,04,8.90
2010,06,16,03,05,8.90
2010,06,16,03,06,8.90
2010,06,16,03,07,8.90
2010,06,16,03,08,8.90
2010,06,16,03,09,8.90
2010,06,16,03,10,8.90
2010,06,16,03,11,8.90
2010,06,16,03,12,8.90
2010,06,16,03,13,8.90
2010,06,16,03,14,8.90
2010,06,16,03,15,8.90
2010,06,16,03,16,8.90
2010,06,16,03,17,9.00
2010,06,16,03,18,9.00
2010,06,16,03,19,9.00
2010,06,16,03,20,9.10
2010,06,16,03,21,9.10
2010,06,16,03,22,9.10
2010,06,16,03,24,9.10
2010,06,16,03,25,9.10
2010,06,16,03,26,9.20
2010,06,16,03,27,9.20
2010,06,16,03,28,9.20
2010,06,16,03,29,9.20
2010,06,16,03,30,9.20
2010,06,16,03,31,9.20
2010,06,16,03,32,9.20
2010,06,16,03,33,9.20
2010,06,16,03,34,9.20
2010,06,16,03,35,9.20
2010,06,16,03,36,9.10
2010,06,16,03,37,9.10
2010,06,16,03,38,9.10
2010,06,16,03,39,9.10
2010,06,16,03,40,9.10
2010,06,16,03,41,9.10
2010,06,16,03,42,9.10
2010,06,16,03,43,9.10
2010,06,16,03,44,9.10
2010,06,16,03,45,9.10
2010,06,16,03,46,9.10
2010,06,16,03,47,9.10
2010,06,16,03,48,9.10
2010,06,16,03,49,9.10
2010,06,16,03,50,9.10
2010,06,16,03,51,9.00
2010,06,16,03,52,9.00
2010,06,16,03,53,9.00
2010,06,16,03,54,9.00
2010,06,16,03,55,9.00
2010,06,16,03,56,8.90
2010,06,16,03,57,8.90
2010,06,16,03,58,8.90
2010,06,16,03,59,8.90
2010,06,16,04,00,8.90
2010,06,16,04,01,8.90
2010,06,16,04,02,8.90
2010,06,16,04,03,8.90
2010,06,16,04,04,8.90
2010,06,16,04,05,8.90
2010,06,16,04,06,8.90
2010,06,16,04,07,8.90
2010,06,16,04,08,8.90
2010,06,16,04,09,8.90
2010,06,16,04,10,8.90
2010,06,16,04,11,8.90
2010,06,16,04,12,8.90
2010,06,16,04,13,8.90
2010,06,16,04,14,8.90
2010,06,16,04,15,8.90
2010,06,16,04,16,9.00
2010,06,16,04,17,8.90
2010,06,16,04,18,8.90
2010,06,16,04,19,8.90
2010,06,16,04,20,8.90
2010,06,16,04,21,8.90
2010,06,16,04,22,8.90
2010,06,16,04,23,8.90
2010,06,16,04,24,8.90
2010,06,16,04,25,8.90
2010,06,16,04,26,8.90
2010,06,16,04,27,8.90
2010,06,16,04,28,8.90
2010,06,16,04,29,8.90
2010,06,16,04,30,8.90
2010,06,16,04,31,8.90
2010,06,16,04,32,8.90
2010,06,16,04,33,8.90
2010,06,16,04,34,8.90
2010,06,16,04,35,8.80
2010,06,16,04,36,8.80
2010,06,16,04,37,8.80
2010,06,16,04,38,8.80
2010,06,16,04,39,8.80
2010,06,16,04,40,8.80
2010,06,16,04,41,8.70
2010,06,16,04,42,8.70
2010,06,16,04,43,8.70
2010,06,16,04,44,8.70
2010,06,16,04,45,8.70
2010,06,16,04,46,8.60
2010,06,16,04,47,8.60
2010,06,16,04,48,8.60
2010,06,16,04,49,8.60
2010,06,16,04,50,8.50
2010,06,16,04,51,8.50
2010,06,16,04,52,8.50
2010,06,16,04,53,8.50
2010,06,16,04,54,8.50
2010,06,16,04,55,8.50
2010,06,16,04,56,8.40
2010,06,16,04,57,8.40
2010,06,16,04,58,8.50
2010,06,16,04,59,8.50
2010,06,16,05,00,8.50
2010,06,16,05,01,8.50
2010,06,16,05,02,8.50
2010,06,16,05,03,8.50
2010,06,16,05,04,8.40
2010,06,16,05,05,8.40
2010,06,16,05,06,8.40
2010,06,16,05,07,8.40
2010,06,16,05,08,8.30
2010,06,16,05,09,8.30
2010,06,16,05,10,8.30
2010,06,16,05,11,8.20
2010,06,16,05,12,8.20
2010,06,16,05,13,8.20
2010,06,16,05,14,8.20
2010,06,16,05,15,8.20
2010,06,16,05,16,8.20
2010,06,16,05,17,8.10
2010,06,16,05,18,8.10
2010,06,16,05,19,8.10
2010,06,16,05,20,8.10
2010,06,16,05,21,8.00
2010,06,16,05,22,8.00
2010,06,16,05,23,8.00
2010,06,16,05,24,7.90
2010,06,16,05,25,7.90
2010,06,16,05,26,7.90
2010,06,16,05,27,7.90
2010,06,16,05,28,7.90
2010,06,16,05,29,7.80
2010,06,16,05,30,7.80
2010,06,16,05,31,7.80
2010,06,16,05,32,7.80
2010,06,16,05,33,7.80
2010,06,16,05,34,7.80
2010,06,16,05,35,7.80
2010,06,16,05,36,7.80
2010,06,16,05,37,7.70
2010,06,16,05,38,7.70
2010,06,16,05,39,7.70
2010,06,16,05,40,7.70
2010,06,16,05,41,7.70
2010,06,16,05,42,7.70
2010,06,16,05,43,7.60
2010,06,16,05,44,7.60
2010,06,16,05,45,7.60
2010,06,16,05,46,7.60
2010,06,16,05,47,7.60
2010,06,16,05,48,7.60
2010,06,16,05,49,7.50
2010,06,16,05,50,7.50
2010,06,16,05,51,7.50
2010,06,16,05,52,7.50
2010,06,16,05,53,7.50
2010,06,16,05,54,7.50
2010,06,16,05,55,7.50
2010,06,16,05,56,7.50
2010,06,16,05,57,7.40
2010,06,16,05,58,7.50
2010,06,16,05,59,7.40
2010,06,16,06,00,7.40
2010,06,16,06,01,7.50
2010,06,16,06,02,7.40
2010,06,16,06,03,7.40
2010,06,16,06,04,7.40
2010,06,16,06,05,7.40
2010,06,16,06,06,7.40
2010,06,16,06,07,7.40
2010,06,16,06,08,7.40
2010,06,16,06,09,7.40
2010,06,16,06,10,7.40
2010,06,16,06,11,7.40
2010,06,16,06,12,7.40
2010,06,16,06,13,7.40
2010,06,16,06,14,7.40
2010,06,16,06,15,7.40
2010,06,16,06,16,7.40
2010,06,16,06,17,7.40
2010,06,16,06,18,7.40
2010,06,16,06,19,7.40
2010,06,16,06,20,7.40
2010,06,16,06,21,7.40
2010,06,16,06,22,7.40
2010,06,16,06,23,7.40
2010,06,16,06,24,7.40
2010,06,16,06,25,7.40
2010,06,16,06,26,7.30
2010,06,16,06,27,7.30
2010,06,16,06,28,7.30
2010,06,16,06,29,7.40
2010,06,16,06,30,7.40
2010,06,16,06,31,7.40
2010,06,16,06,32,7.40
2010,06,16,06,33,7.50
2010,06,16,06,34,7.50
2010,06,16,06,35,7.60
2010,06,16,06,36,7.60
2010,06,16,06,37,7.70
2010,06,16,06,38,7.80
2010,06,16,06,39,7.90
2010,06,16,06,40,7.90
2010,06,16,06,41,8.00
2010,06,16,06,42,8.10
2010,06,16,06,43,8.20
2010,06,16,06,44,8.30
2010,06,16,06,45,8.30
2010,06,16,06,46,8.40
2010,06,16,06,47,8.40
2010,06,16,06,48,8.50
2010,06,16,06,49,8.60
2010,06,16,06,50,8.60
2010,06,16,06,51,8.70
2010,06,16,06,52,8.70
2010,06,16,06,53,8.80
2010,06,16,06,54,8.90
2010,06,16,06,55,9.00
2010,06,16,06,56,9.20
2010,06,16,06,57,9.30
2010,06,16,06,58,9.40
2010,06,16,06,59,9.50
2010,06,16,07,00,9.60
2010,06,16,07,01,9.80
2010,06,16,07,02,9.90
2010,06,16,07,03,10.00
2010,06,16,07,04,10.20
2010,06,16,07,05,10.30
2010,06,16,07,06,10.40
2010,06,16,07,07,10.50
2010,06,16,07,08,10.60
2010,06,16,07,09,10.70
2010,06,16,07,10,10.80
2010,06,16,07,11,10.80
2010,06,16,07,12,10.80
2010,06,16,07,13,10.90
2010,06,16,07,14,11.00
2010,06,16,07,15,11.10
2010,06,16,07,16,11.10
2010,06,16,07,17,11.20
2010,06,16,07,18,11.30
2010,06,16,07,19,11.40
2010,06,16,07,20,11.40
2010,06,16,07,21,11.50
2010,06,16,07,22,11.60
2010,06,16,07,23,11.70
2010,06,16,07,24,11.70
2010,06,16,07,25,11.80
2010,06,16,07,26,11.90
2010,06,16,07,27,12.00
2010,06,16,07,28,12.00
2010,06,16,07,29,12.10
2010,06,16,07,30,12.20
2010,06,16,07,31,12.20
2010,06,16,07,32,12.20
2010,06,16,07,33,12.30
2010,06,16,07,34,12.40
2010,06,16,07,35,12.40
2010,06,16,07,36,12.40
2010,06,16,07,37,12.50
2010,06,16,07,38,12.50
2010,06,16,07,39,12.60
2010,06,16,07,40,12.70
2010,06,16,07,41,12.70
2010,06,16,07,42,12.80
2010,06,16,07,43,12.80
2010,06,16,07,44,12.90
2010,06,16,07,45,12.90
2010,06,16,07,46,13.00
2010,06,16,07,47,13.10
2010,06,16,07,48,13.20
2010,06,16,07,49,13.20
2010,06,16,07,50,13.30
2010,06,16,07,51,13.30
2010,06,16,07,52,13.40
2010,06,16,07,53,13.40
2010,06,16,07,54,13.40
2010,06,16,07,55,13.40
2010,06,16,07,56,13.40
2010,06,16,07,57,13.50
2010,06,16,07,58,13.50
2010,06,16,07,59,13.50
2010,06,16,08,00,13.60
2010,06,16,08,01,13.60
2010,06,16,08,02,13.50
2010,06,16,08,03,13.50
2010,06,16,08,04,13.50
2010,06,16,08,05,13.40
2010,06,16,08,06,13.40
2010,06,16,08,07,13.50
2010,06,16,08,08,13.50
2010,06,16,08,09,13.60
2010,06,16,08,10,13.60
2010,06,16,08,11,13.70
2010,06,16,08,12,13.70
2010,06,16,08,13,13.70
2010,06,16,08,14,13.60
2010,06,16,08,15,13.60
2010,06,16,08,16,13.50
2010,06,16,08,17,13.50
2010,06,16,08,18,13.50
2010,06,16,08,19,13.40
2010,06,16,08,20,13.40
2010,06,16,08,21,13.30
2010,06,16,08,22,13.30
2010,06,16,08,23,13.30
2010,06,16,08,24,13.30
2010,06,16,08,25,13.40
2010,06,16,08,26,13.50
2010,06,16,08,27,13.50
2010,06,16,08,28,13.60
2010,06,16,08,29,13.70
2010,06,16,08,30,13.80
2010,06,16,08,31,13.80
2010,06,16,08,32,13.90
2010,06,16,08,33,13.90
2010,06,16,08,34,14.00
2010,06,16,08,35,14.10
2010,06,16,08,36,14.20
2010,06,16,08,37,14.20
2010,06,16,08,38,14.20
2010,06,16,08,39,14.10
2010,06,16,08,40,14.10
2010,06,16,08,41,14.00
2010,06,16,08,42,14.00
2010,06,16,08,43,14.00
2010,06,16,08,44,14.00
2010,06,16,08,45,14.10
2010,06,16,08,46,14.10
2010,06,16,08,47,14.20
2010,06,16,08,48,14.20
2010,06,16,08,49,14.20
2010,06,16,08,50,14.20
2010,06,16,08,51,14.20
2010,06,16,08,52,14.20
2010,06,16,08,53,14.20
2010,06,16,08,54,14.20
2010,06,16,08,55,14.20
2010,06,16,08,56,14.10
2010,06,16,08,57,14.00
2010,06,16,08,58,14.00
2010,06,16,08,59,13.90
2010,06,16,09,00,14.00
2010,06,16,09,01,14.00
2010,06,16,09,02,14.10
2010,06,16,09,03,14.20
2010,06,16,09,04,14.20
2010,06,16,09,05,14.30
2010,06,16,09,06,14.30
2010,06,16,09,07,14.30
2010,06,16,09,08,14.30
2010,06,16,09,09,14.30
2010,06,16,09,11,14.30
2010,06,16,09,12,14.30
2010,06,16,09,13,14.30
2010,06,16,09,14,14.30
2010,06,16,09,15,14.20
2010,06,16,09,16,14.20
2010,06,16,09,17,14.20
2010,06,16,09,18,14.10
2010,06,16,09,19,14.10
2010,06,16,09,20,14.10
2010,06,16,09,21,14.10
2010,06,16,09,22,14.10
2010,06,16,09,23,14.10
2010,06,16,09,24,14.10
2010,06,16,09,25,14.10
2010,06,16,09,26,14.10
2010,06,16,09,27,14.20
2010,06,16,09,28,14.20
2010,06,16,09,29,14.20
2010,06,16,09,30,14.20
2010,06,16,09,31,14.20
2010,06,16,09,32,14.30
2010,06,16,09,33,14.30
2010,06,16,09,34,14.40
2010,06,16,09,35,14.40
2010,06,16,09,36,14.60
2010,06,16,09,37,14.80
2010,06,16,09,38,14.90
2010,06,16,09,39,15.00
2010,06,16,09,40,15.00
2010,06,16,09,41,15.00
2010,06,16,09,42,15.00
2010,06,16,09,43,15.10
2010,06,16,09,44,15.20
2010,06,16,09,45,15.30
2010,06,16,09,46,15.40
2010,06,16,09,47,15.40
2010,06,16,09,48,15.40
2010,06,16,09,49,15.40
2010,06,16,09,50,15.40
2010,06,16,09,51,15.40
2010,06,16,09,52,15.50
2010,06,16,09,53,15.60
2010,06,16,09,54,15.70
2010,06,16,09,55,15.70
2010,06,16,09,56,15.70
2010,06,16,09,57,15.70
2010,06,16,09,58,15.70
2010,06,16,09,59,15.70
2010,06,16,10,00,15.80
2010,06,16,10,01,15.70
2010,06,16,10,02,15.60
2010,06,16,10,03,15.50
2010,06,16,10,04,15.40
2010,06,16,10,05,15.20
2010,06,16,10,06,15.20
2010,06,16,10,07,15.20
2010,06,16,10,08,15.30
2010,06,16,10,09,15.30
2010,06,16,10,10,15.40
2010,06,16,10,11,15.40
2010,06,16,10,12,15.40
2010,06,16,10,13,15.30
2010,06,16,10,14,15.30
2010,06,16,10,15,15.20
2010,06,16,10,16,15.30
2010,06,16,10,17,15.40
2010,06,16,10,18,15.50
2010,06,16,10,19,15.70
2010,06,16,10,20,15.80
2010,06,16,10,21,15.90
2010,06,16,10,22,16.00
2010,06,16,10,23,16.10
2010,06,16,10,24,16.20
2010,06,16,10,25,16.30
2010,06,16,10,26,16.30
2010,06,16,10,27,16.20
2010,06,16,10,28,15.90
2010,06,16,10,29,15.70
2010,06,16,10,30,15.50
2010,06,16,10,31,15.50
2010,06,16,10,32,15.60
2010,06,16,10,33,15.60
2010,06,16,10,34,15.60
2010,06,16,10,35,15.60
2010,06,16,10,36,15.50
2010,06,16,10,37,15.50
2010,06,16,10,38,15.40
2010,06,16,10,39,15.30
2010,06,16,10,40,15.30
2010,06,16,10,41,15.30
2010,06,16,10,42,15.30
2010,06,16,10,43,15.30
2010,06,16,10,44,15.30
2010,06,16,10,45,15.50
2010,06,16,10,46,15.60
2010,06,16,10,47,15.80
2010,06,16,10,48,15.90
2010,06,16,10,49,16.00
2010,06,16,10,50,16.10
2010,06,16,10,51,16.20
2010,06,16,10,52,16.40
2010,06,16,10,53,16.60
2010,06,16,10,54,16.80
2010,06,16,10,55,16.90
2010,06,16,10,56,16.90
2010,06,16,10,57,17.00
2010,06,16,10,58,17.10
2010,06,16,10,59,17.00
2010,06,16,11,00,16.90
2010,06,16,11,01,16.80
2010,06,16,11,02,16.50
2010,06,16,11,03,16.10
2010,06,16,11,04,15.90
2010,06,16,11,05,15.80
2010,06,16,11,06,15.80
2010,06,16,11,07,15.80
2010,06,16,11,08,15.80
2010,06,16,11,09,15.80
2010,06,16,11,10,15.70
2010,06,16,11,11,15.60
2010,06,16,11,12,15.40
2010,06,16,11,13,15.30
2010,06,16,11,14,15.30
2010,06,16,11,15,15.30
2010,06,16,11,16,15.40
2010,06,16,11,17,15.50
2010,06,16,11,18,15.50
2010,06,16,11,19,15.60
2010,06,16,11,20,15.60
2010,06,16,11,21,15.50
2010,06,16,11,22,15.50
2010,06,16,11,23,15.50
2010,06,16,11,24,15.40
2010,06,16,11,25,15.30
2010,06,16,11,26,15.20
2010,06,16,11,27,15.10
2010,06,16,11,28,15.00
2010,06,16,11,29,15.00
2010,06,16,11,30,15.00
2010,06,16,11,31,15.10
2010,06,16,11,32,15.00
2010,06,16,11,33,15.00
2010,06,16,11,34,15.00
2010,06,16,11,35,15.00
2010,06,16,11,36,15.00
2010,06,16,11,37,14.90
2010,06,16,11,38,14.80
2010,06,16,11,39,14.70
2010,06,16,11,40,14.70
2010,06,16,11,41,14.70
2010,06,16,11,42,14.70
2010,06,16,11,43,14.80
2010,06,16,11,44,14.90
2010,06,16,11,45,15.00
2010,06,16,11,46,15.00
2010,06,16,11,47,15.00
2010,06,16,11,48,15.00
2010,06,16,11,49,14.90
2010,06,16,11,50,14.90
2010,06,16,11,51,15.00
2010,06,16,11,52,15.00
2010,06,16,11,53,15.00
2010,06,16,11,54,15.00
2010,06,16,11,55,15.00
2010,06,16,11,56,15.00
2010,06,16,11,57,15.00
2010,06,16,11,58,15.00
2010,06,16,11,59,15.00
2010,06,16,12,00,15.00
2010,06,16,12,01,15.00
2010,06,16,12,02,14.90
2010,06,16,12,03,14.80
2010,06,16,12,04,14.70
2010,06,16,12,05,14.60
2010,06,16,12,06,14.60
2010,06,16,12,07,14.60
2010,06,16,12,08,14.60
2010,06,16,12,09,14.50
2010,06,16,12,10,14.50
2010,06,16,12,11,14.50
2010,06,16,12,12,14.50
2010,06,16,12,13,14.60
2010,06,16,12,14,14.60
2010,06,16,12,15,14.70
2010,06,16,12,16,14.70
2010,06,16,12,17,14.80
2010,06,16,12,18,15.00
2010,06,16,12,19,15.00
2010,06,16,12,20,14.90
2010,06,16,12,21,14.70
2010,06,16,12,22,14.50
2010,06,16,12,23,14.50
2010,06,16,12,24,14.50
2010,06,16,12,25,14.50
2010,06,16,12,26,14.60
2010,06,16,12,27,14.70
2010,06,16,12,28,14.70
2010,06,16,12,29,14.80
2010,06,16,12,30,14.80
2010,06,16,12,31,14.90
2010,06,16,12,32,14.80
2010,06,16,12,33,14.80
2010,06,16,12,34,14.80
2010,06,16,12,35,14.80
2010,06,16,12,36,14.70
2010,06,16,12,37,14.70
2010,06,16,12,38,14.70
2010,06,16,12,39,14.80
2010,06,16,12,40,14.90
2010,06,16,12,41,15.00
2010,06,16,12,42,15.00
2010,06,16,12,43,15.00
2010,06,16,12,44,15.00
2010,06,16,12,45,15.00
2010,06,16,12,46,15.00
2010,06,16,12,47,15.00
2010,06,16,12,48,15.00
2010,06,16,12,49,15.00
2010,06,16,12,50,15.00
2010,06,16,12,51,15.00
2010,06,16,12,52,15.00
2010,06,16,12,53,15.00
2010,06,16,12,54,15.20
2010,06,16,12,55,15.20
2010,06,16,12,56,15.10
2010,06,16,12,57,15.00
2010,06,16,12,58,15.00
2010,06,16,12,59,15.00
2010,06,16,13,00,15.00
2010,06,16,13,01,15.00
2010,06,16,13,02,15.00
2010,06,16,13,03,15.00
2010,06,16,13,04,15.00
2010,06,16,13,05,15.00
2010,06,16,13,06,15.00
2010,06,16,13,07,15.00
2010,06,16,13,08,15.00
2010,06,16,13,09,15.00
2010,06,16,13,10,15.10
2010,06,16,13,11,15.10
2010,06,16,13,12,15.20
2010,06,16,13,13,15.30
2010,06,16,13,14,15.40
2010,06,16,13,15,15.50
2010,06,16,13,16,15.60
2010,06,16,13,17,15.60
2010,06,16,13,18,15.50
2010,06,16,13,19,15.50
2010,06,16,13,20,15.60
2010,06,16,13,21,15.70
2010,06,16,13,22,15.70
2010,06,16,13,23,15.70
2010,06,16,13,24,15.70
2010,06,16,13,25,15.70
2010,06,16,13,26,15.70
2010,06,16,13,27,15.70
2010,06,16,13,28,15.60
2010,06,16,13,29,15.50
2010,06,16,13,30,15.30
2010,06,16,13,31,15.20
2010,06,16,13,32,15.20
2010,06,16,13,33,15.30
2010,06,16,13,34,15.20
2010,06,16,13,35,15.20
2010,06,16,13,36,15.10
2010,06,16,13,37,15.10
2010,06,16,13,38,15.10
2010,06,16,13,39,15.00
2010,06,16,13,40,15.00
2010,06,16,13,41,15.00
2010,06,16,13,42,15.00
2010,06,16,13,43,15.00
2010,06,16,13,44,15.00
2010,06,16,13,45,15.00
2010,06,16,13,46,15.00
2010,06,16,13,47,15.10
2010,06,16,13,48,15.10
2010,06,16,13,49,15.10
2010,06,16,13,50,15.10
2010,06,16,13,51,15.20
2010,06,16,13,52,15.30
2010,06,16,13,53,15.30
2010,06,16,13,54,15.20
2010,06,16,13,55,15.10
2010,06,16,13,56,15.10
2010,06,16,13,57,15.00
2010,06,16,13,58,15.10
2010,06,16,13,59,15.10
2010,06,16,14,00,15.20
2010,06,16,14,01,15.30
2010,06,16,14,02,15.40
2010,06,16,14,03,15.40
2010,06,16,14,04,15.50
2010,06,16,14,05,15.50
2010,06,16,14,06,15.50
2010,06,16,14,07,15.60
2010,06,16,14,08,15.70
2010,06,16,14,09,15.70
2010,06,16,14,10,15.80
2010,06,16,14,11,15.90
2010,06,16,14,12,16.00
2010,06,16,14,13,16.00
2010,06,16,14,14,16.10
2010,06,16,14,15,16.10
2010,06,16,14,16,16.10
2010,06,16,14,17,16.10
2010,06,16,14,18,16.00
2010,06,16,14,19,15.90
2010,06,16,14,20,15.90
2010,06,16,14,21,16.00
2010,06,16,14,22,16.20
2010,06,16,14,23,16.20
2010,06,16,14,24,16.30
2010,06,16,14,25,16.20
2010,06,16,14,26,16.10
2010,06,16,14,27,16.10
2010,06,16,14,28,16.00
2010,06,16,14,29,15.90
2010,06,16,14,30,15.90
2010,06,16,14,31,15.80
2010,06,16,14,32,15.90
2010,06,16,14,33,16.00
2010,06,16,14,34,16.00
2010,06,16,14,35,15.90
2010,06,16,14,36,15.90
2010,06,16,14,37,16.00
2010,06,16,14,38,16.00
2010,06,16,14,39,16.00
2010,06,16,14,40,16.10
2010,06,16,14,41,16.10
2010,06,16,14,42,16.10
2010,06,16,14,43,16.20
2010,06,16,14,44,16.20
2010,06,16,14,45,16.20
2010,06,16,14,46,16.10
2010,06,16,14,47,16.20
2010,06,16,14,48,16.20
2010,06,16,14,49,16.20
2010,06,16,14,50,16.20
2010,06,16,14,51,16.10
2010,06,16,14,52,16.00
2010,06,16,14,53,16.00
2010,06,16,14,54,16.10
2010,06,16,14,55,16.00
2010,06,16,14,56,16.10
2010,06,16,14,57,16.00
2010,06,16,14,58,15.80
2010,06,16,14,59,15.60
2010,06,16,15,00,15.60
2010,06,16,15,01,15.60
2010,06,16,15,02,15.60
2010,06,16,15,03,15.60
2010,06,16,15,04,15.70
2010,06,16,15,05,15.60
2010,06,16,15,06,15.60
2010,06,16,15,07,15.60
2010,06,16,15,08,15.60
2010,06,16,15,09,15.60
2010,06,16,15,10,15.60
2010,06,16,15,11,15.60
2010,06,16,15,12,15.50
2010,06,16,15,13,15.40
2010,06,16,15,15,15.40
2010,06,16,15,16,15.40
2010,06,16,15,17,15.40
2010,06,16,15,18,15.50
2010,06,16,15,19,15.50
2010,06,16,15,20,15.40
2010,06,16,15,21,15.30
2010,06,16,15,22,15.30
2010,06,16,15,23,15.30
2010,06,16,15,24,15.30
2010,06,16,15,25,15.20
2010,06,16,15,26,15.20
2010,06,16,15,27,15.30
2010,06,16,15,28,15.30
2010,06,16,15,29,15.30
2010,06,16,15,30,15.40
2010,06,16,15,31,15.50
2010,06,16,15,33,15.70
2010,06,16,15,34,15.80
2010,06,16,15,35,15.90
2010,06,16,15,36,15.90
2010,06,16,15,37,15.80
2010,06,16,15,38,15.80
2010,06,16,15,39,15.80
2010,06,16,15,40,15.80
2010,06,16,15,41,15.70
2010,06,16,15,42,15.70
2010,06,16,15,43,15.60
2010,06,16,15,44,15.60
2010,06,16,15,45,15.60
2010,06,16,15,46,15.60
2010,06,16,15,47,15.50
2010,06,16,15,48,15.50
2010,06,16,15,49,15.50
2010,06,16,15,50,15.40
2010,06,16,15,51,15.40
2010,06,16,15,52,15.30
2010,06,16,15,53,15.30
2010,06,16,15,54,15.30
2010,06,16,15,55,15.30
2010,06,16,15,56,15.30
2010,06,16,15,57,15.30
2010,06,16,15,58,15.30
2010,06,16,15,59,15.20
2010,06,16,16,00,15.20
2010,06,16,16,01,15.30
2010,06,16,16,02,15.30
2010,06,16,16,03,15.30
2010,06,16,16,04,15.20
2010,06,16,16,05,15.20
2010,06,16,16,06,15.20
2010,06,16,16,07,15.30
2010,06,16,16,08,15.30
2010,06,16,16,09,15.30
2010,06,16,16,10,15.30
2010,06,16,16,11,15.30
2010,06,16,16,12,15.40
2010,06,16,16,13,15.40
2010,06,16,16,14,15.50
2010,06,16,16,15,15.50
2010,06,16,16,16,15.60
2010,06,16,16,17,15.60
2010,06,16,16,18,15.50
2010,06,16,16,19,15.50
2010,06,16,16,20,15.60
2010,06,16,16,21,15.70
2010,06,16,16,22,15.70
2010,06,16,16,23,15.60
2010,06,16,16,24,15.50
2010,06,16,16,25,15.40
2010,06,16,16,26,15.40
2010,06,16,16,27,15.30
2010,06,16,16,28,15.30
2010,06,16,16,29,15.10
2010,06,16,16,30,15.00
2010,06,16,16,31,15.00
2010,06,16,16,32,15.00
2010,06,16,16,33,15.00
2010,06,16,16,34,15.10
2010,06,16,16,35,15.20
2010,06,16,16,36,15.20
2010,06,16,16,37,15.30
2010,06,16,16,38,15.40
2010,06,16,16,39,15.50
2010,06,16,16,40,15.50
2010,06,16,16,41,15.50
2010,06,16,16,42,15.50
2010,06,16,16,43,15.60
2010,06,16,16,44,15.50
2010,06,16,16,45,15.50
2010,06,16,16,46,15.50
2010,06,16,16,47,15.50
2010,06,16,16,48,15.40
2010,06,16,16,49,15.30
2010,06,16,16,50,15.30
2010,06,16,16,51,15.20
2010,06,16,16,52,15.20
2010,06,16,16,53,15.10
2010,06,16,16,54,15.10
2010,06,16,16,55,15.10
2010,06,16,16,56,15.20
2010,06,16,16,57,15.20
2010,06,16,16,58,15.20
2010,06,16,16,59,15.20
2010,06,16,17,00,15.20
2010,06,16,17,01,15.20
2010,06,16,17,02,15.20
2010,06,16,17,03,15.30
2010,06,16,17,04,15.30
2010,06,16,17,06,15.20
2010,06,16,17,07,15.20
2010,06,16,17,08,15.20
2010,06,16,17,09,15.10
2010,06,16,17,10,15.20
2010,06,16,17,11,15.10
2010,06,16,17,12,15.10
2010,06,16,17,13,15.20
2010,06,16,17,14,15.30
2010,06,16,17,15,15.40
2010,06,16,17,16,15.40
2010,06,16,17,17,15.50
2010,06,16,17,18,15.60
2010,06,16,17,19,15.70
2010,06,16,17,20,15.70
2010,06,16,17,21,15.60
2010,06,16,17,22,15.60
2010,06,16,17,23,15.60
2010,06,16,17,24,15.70
2010,06,16,17,25,15.70
2010,06,16,17,26,15.70
2010,06,16,17,27,15.70
2010,06,16,17,28,15.60
2010,06,16,17,29,15.60
2010,06,16,17,30,15.50
2010,06,16,17,31,15.40
2010,06,16,17,32,15.40
2010,06,16,17,33,15.40
2010,06,16,17,34,15.40
2010,06,16,17,35,15.40
2010,06,16,17,36,15.40
2010,06,16,17,37,15.40
2010,06,16,17,38,15.40